Location: ??
(35.4032°N, 139.3073°E)
Time: 09:10:58
(UTC+00:00)

Cosmos 1842 - Visible Passes

Search period start: 19 July 2024 00:00
Search period end: 29 July 2024 00:00
Orbit: 484 x 491 km, 82.5° (Epoch: 18 July)

Date Brightness Start Highest point End Pass type
(mag) Time Alt. Az. Time Alt. Az. Time Alt. Az.
19 Jul 6.1 16:40:19 10° NE 16:41:34 11° ENE 16:42:48 10° E visible
19 Jul 3.8 18:13:27 10° NNW 18:16:48 33° W 18:17:31 30° WSW visible
20 Jul 3.1 17:49:28 10° NNW 17:53:06 57° W 17:53:18 56° WSW visible
21 Jul 3.2 17:25:38 10° N 17:29:05 75° NNE 17:29:05 75° NNE visible
22 Jul 4.2 17:01:55 10° N 17:04:53 42° NE 17:04:53 42° NE visible
23 Jul 5.2 16:38:22 10° NNE 16:40:42 25° NE 16:40:42 25° NE visible
23 Jul 5.4 18:14:38 10° WNW 18:15:06 11° WNW 18:15:06 11° WNW visible
24 Jul 5.9 16:15:03 10° NNE 16:16:32 16° NE 16:16:32 16° NE visible
24 Jul 5.2 17:49:49 10° NW 17:50:56 16° NW 17:50:56 16° NW visible
25 Jul 5.2 17:25:27 10° NNW 17:26:45 19° NW 17:26:45 19° NW visible
26 Jul 5.3 17:01:17 10° NNW 17:02:35 20° NNW 17:02:35 20° NNW visible
27 Jul 5.6 16:37:16 10° N 16:38:24 19° N 16:38:24 19° N visible
28 Jul 6.0 16:13:22 10° N 16:14:14 16° NNE 16:14:14 16° NNE visible
